Weather History for CYHM - October, 2013

Change the Weather History Date:

Saturday, October 19, 2013

  Actual Average Record
Temperature  
Mean Temperature 44 °F -  
Max Temperature 48 °F 49 °F 69 °F (2007)
Min Temperature 41 °F 35 °F 33 °F (1999)
Degree Days  
Heating Degree Days 20    
Moisture  
Dew Point 42 °F    
Average Humidity 89    
Maximum Humidity 94    
Minimum Humidity 82    
Precipitation  
Precipitation 0.28 in 0.10 in - ()
Sea Level Pressure  
Sea Level Pressure 29.78 in    
Wind  
Wind Speed 6 mph ()    
Max Wind Speed 13 mph    
Max Gust Speed -    
Visibility 11.2 miles    
Events Rain    
Averages and records for this station are not official NWS values.
T = Trace of Precipitation, MM = Missing Value Source: Averaged Metar Reports

Daily Weather History Graph

Daily Weather History Graph

Search for Another Location

Airport or City:

Trip Planner

Search our weather history database for the weather conditions in past years. The results will help you decide how hot, cold, wet, or windy it might be!

Date:

Astronomy

Oct. 19, 2013 Rise Set
Actual Time 7:38 AM EDT 6:30 PM EDT
Civil Twilight 7:09 AM EDT 6:58 PM EDT
Nautical Twilight 6:36 AM EDT 7:31 PM EDT
Astronomical Twilight 6:03 AM EDT 8:04 PM EDT
Moon 6:54 PM EDT (10/19) 8:16 AM EDT (10/19)
Length of Visible Light 11h 49m
Length of Day
10h 51m
Waxing Gibbous, 99% of the Moon is Illuminated
Oct 19
Waxing Gibbous
Oct 26
Last Quarter
Nov 3
New
Nov 10
First Quarter
Nov 17
Full

Hourly Weather History & Observations

Time (EDT) Temp. Windchill Dew Point Humidity Pressure Visibility Wind Dir Wind Speed Gust Speed Precip Events Conditions
12:00 AM 48.2 °F - 42.8 °F 82% 29.87 in 15.0 mi South 5.8 mph - N/A   Partly Cloudy
1:00 AM 48.2 °F - 42.8 °F 82% 29.87 in 15.0 mi WSW 5.8 mph - N/A   Partly Cloudy
2:00 AM 45 °F - 41 °F 82% 29.86 in 15 mi SW 4.6 mph - -   Partly Cloudy
2:00 AM 44.6 °F 41.4 °F 41.0 °F 87% 29.86 in 15.0 mi SSW 5.8 mph - N/A   Scattered Clouds
3:00 AM 44.6 °F 42.2 °F 41.0 °F 87% 29.86 in 15.0 mi SW 4.6 mph - N/A   Mostly Cloudy
4:00 AM 44.6 °F 42.2 °F 41.0 °F 87% 29.86 in 15.0 mi SW 4.6 mph - N/A   Mostly Cloudy
5:00 AM 42.8 °F 40.1 °F 41.0 °F 93% 29.85 in 15.0 mi South 4.6 mph - N/A   Mostly Cloudy
6:00 AM 44.6 °F 42.2 °F 41.0 °F 87% 29.84 in 15.0 mi SW 4.6 mph - N/A   Mostly Cloudy
7:00 AM 44.6 °F 42.2 °F 42.8 °F 93% 29.84 in 15.0 mi SW 4.6 mph - N/A   Mostly Cloudy
8:00 AM 44 °F - 42 °F 89% 29.83 in 15 mi West 3.5 mph - -   Overcast
8:00 AM 44.6 °F - 42.8 °F 93% 29.83 in 15.0 mi West 2.3 mph - N/A   Overcast
9:00 AM 46.4 °F 44.3 °F 42.8 °F 87% 29.82 in 15.0 mi WSW 4.6 mph - N/A   Overcast
9:30 AM 46.4 °F 44.3 °F 42.8 °F 87% 29.82 in 7.0 mi SW 4.6 mph - N/A Rain Light Rain Showers
10:00 AM 46.4 °F 44.3 °F 44.6 °F 93% 29.81 in 12.0 mi SW 4.6 mph - N/A Rain Light Rain Showers
11:00 AM 48.2 °F - 44.6 °F 87% 29.79 in 12.0 mi SSW 2.3 mph - N/A Rain Light Rain Showers
12:00 PM 48.2 °F - 44.6 °F 87% 29.78 in 6.0 mi SSW 4.6 mph - N/A Rain Light Rain Showers
1:00 PM 48.2 °F - 44.6 °F 87% 29.75 in 7.0 mi SSW 5.8 mph - N/A Rain Light Rain Showers
2:00 PM 48 °F - 44 °F 83% 29.73 in 7 mi WSW 6.9 mph - - Rain Light Rain Showers
2:00 PM 48.2 °F - 44.6 °F 87% 29.73 in 8.0 mi West 6.9 mph - N/A Rain Light Rain Showers
2:29 PM 46.4 °F 41.5 °F 42.8 °F 87% 29.72 in 2.5 mi West 10.4 mph - N/A Rain Light Rain
3:00 PM 46.4 °F 42.4 °F 42.8 °F 87% 29.71 in 3.0 mi WSW 8.1 mph - N/A Rain Light Rain
3:21 PM 46.4 °F 44.3 °F 42.8 °F 87% 29.70 in 4.0 mi SW 4.6 mph - N/A Rain Light Rain
4:00 PM 46.4 °F 41.5 °F 42.8 °F 87% 29.69 in 5.0 mi WSW 10.4 mph - N/A Rain Light Rain
5:00 PM 44.6 °F 38.8 °F 42.8 °F 93% 29.69 in 4.0 mi WSW 11.5 mph - N/A Rain Light Rain
6:00 PM 42.8 °F 36.6 °F 39.2 °F 87% 29.71 in 5.0 mi West 11.5 mph - N/A Rain Light Rain
7:00 PM 42.8 °F 38.0 °F 41.0 °F 93% 29.70 in 12.0 mi WSW 8.1 mph - N/A Rain Light Rain Showers
8:00 PM 42 °F - 41 °F 94% 29.73 in 12 mi West 11.5 mph - - Rain Light Rain Showers
8:00 PM 42.8 °F 36.2 °F 41.0 °F 93% 29.73 in 12.0 mi West 12.7 mph - N/A Rain Light Rain Showers
8:05 PM 42.8 °F 36.6 °F 41.0 °F 93% 29.73 in 15.0 mi West 11.5 mph - N/A   Mostly Cloudy
9:00 PM 41.0 °F 34.3 °F 39.2 °F 93% 29.75 in 15.0 mi WSW 11.5 mph - N/A   Scattered Clouds
10:00 PM 41.0 °F 34.7 °F 39.2 °F 93% 29.77 in 15.0 mi WSW 10.4 mph - N/A   Scattered Clouds
11:00 PM 41.0 °F 33.9 °F 39.2 °F 93% 29.79 in 15.0 mi WSW 12.7 mph - N/A   Mostly Cloudy